Location: Mason
(37.5237°N, 89.2543°W)
Time: 08:15:52
(UTC+00:00)

Meteor 2-10 Rocket - Pass Details

Date: 24 January 2021
Orbit: 733 x 885 km, 81.2° (Epoch: 08 March)

Event Time Altitude Azimuth Distance (km) Brightness Sun altitude
Rises 23:35:38 0° 353° (N) 3,355 6.7 -5.1°
Reaches altitude 10° 23:38:05 10° 355° (N) 2,395 5.9 -5.5°
Maximum altitude 23:43:28 72° 80° (E) 821 3.5 -6.5°
Drops below altitude 10° 23:48:36 10° 165° (SSE) 2,284 6.0 -7.5°
Sets 23:50:54 0° 167° (SSE) 3,188 6.8 -7.9°
